1998-067VC

Last updated on Thu Apr 27 2023 00:02:04 GMT+0000 (Coordinated Universal Time)

1 56311U 98067VC 23116.55929483 .00038798 00000+0 65378-3 0 9990 2 56311 51.6429 224.3834 0007207 280.1058 150.7882 15.51271581 334
UTC large
Height (km)
Speed (km/s)
/
Latitude / Longitude
Inclination (degrees)
Orbital Period (minutes)
Azimuth
Elevation
Range (km)
Doppler Factor

Next 0 passes for location: London (51.5072 / 0.1276)

Sorry there are no passes over London.